| time (UTC) | temp F | wind direction | speed MPH | gust MPH | rain 1hr in | rain 24hr in | rain mn in | humidity % | barometer mb |
| 20260507060040 | 42 | 213 | 1.0 | 5.0 | 0.00 | 0.00 | 0.00 | 69 | 1014.7 |
| 20260507054535 | 41 | 220 | 1.0 | 6.0 | 0.00 | 0.00 | 0.00 | 72 | 1014.5 |
| 20260507053054 | 40 | 211 | 1.0 | 4.0 | 0.00 | 0.00 | 0.00 | 73 | 1014.5 |
| 20260507051538 | 40 | 195 | 0.0 | 8.0 | 0.00 | 0.00 | 0.00 | 74 | 1014.3 |
| 20260507050032 | 39 | 195 | 1.0 | 5.0 | 0.00 | 0.00 | 0.00 | 74 | 1014.0 |
| 20260507044524 | 38 | 213 | 0.0 | 4.0 | 0.00 | 0.00 | 0.00 | 75 | 1013.9 |
| 20260507043021 | 38 | 188 | 1.0 | 3.0 | 0.00 | 0.00 | 0.00 | 75 | 1013.8 |
| 20260507041516 | 38 | 189 | 2.0 | 5.0 | 0.00 | 0.00 | 0.00 | 75 | 1013.7 |
| 20260507040010 | 37 | 185 | 2.0 | 8.0 | 0.00 | 0.00 | 0.00 | 75 | 1013.7 |
| 20260507034516 | 37 | 181 | 5.0 | 8.0 | 0.00 | 0.00 | 0.00 | 74 | 1013.6 |
| 20260507033013 | 37 | 183 | 1.0 | 5.0 | 0.00 | 0.00 | 0.00 | 73 | 1013.4 |
| 20260507031503 | 37 | 186 | 1.0 | 3.0 | 0.00 | 0.00 | 0.00 | 72 | 1013.2 |
| 20260507030101 | 38 | 195 | 1.0 | 3.0 | 0.00 | 0.00 | 0.00 | 72 | 1013.0 |
| 20260507024605 | 38 | 191 | 1.0 | 2.0 | 0.00 | 0.00 | 0.00 | 72 | 1012.9 |
| 20260507023058 | 37 | 197 | 0.0 | 5.0 | 0.00 | 0.00 | 0.00 | 76 | 1012.9 |
| 20260507021555 | 36 | 150 | 0.0 | 3.0 | 0.00 | 0.00 | 0.00 | 79 | 1012.9 |
| 20260507020052 | 37 | 89 | 0.0 | 0.0 | 0.00 | 0.00 | 0.00 | 78 | 1012.8 |
| 20260507014600 | 38 | 89 | 0.0 | 3.0 | 0.00 | 0.00 | 0.00 | 77 | 1012.6 |
| 20260507013050 | 39 | 89 | 0.0 | 0.0 | 0.00 | 0.00 | 0.00 | 76 | 1012.6 |
| 20260507011545 | 39 | 89 | 0.0 | 0.0 | 0.00 | 0.00 | 0.00 | 75 | 1012.5 |
| 20260507010041 | 40 | 89 | 0.0 | 0.0 | 0.00 | 0.00 | 0.00 | 73 | 1012.4 |
| 20260507004539 | 41 | 89 | 0.0 | 0.0 | 0.00 | 0.00 | 0.00 | 70 | 1012.4 |
| 20260507003033 | 43 | 87 | 1.0 | 3.0 | 0.00 | 0.00 | 0.00 | 69 | 1012.4 |
| 20260507001535 | 43 | 170 | 0.0 | 4.0 | 0.00 | 0.00 | 0.00 | 68 | 1012.3 |
| 20260507000028 | 44 | 220 | 1.0 | 5.0 | 0.00 | 0.00 | 0.00 | 67 | 1012.3 |
| 20260506234526 | 44 | 206 | 1.0 | 5.0 | 0.00 | 0.00 | 0.00 | 66 | 1012.2 |
| 20260506233024 | 44 | 112 | 1.0 | 4.0 | 0.00 | 0.00 | 0.00 | 64 | 1012.2 |
| 20260506231523 | 45 | 182 | 1.0 | 10.0 | 0.00 | 0.00 | 0.00 | 63 | 1012.2 |
| 20260506230019 | 45 | 210 | 1.0 | 5.0 | 0.00 | 0.00 | 0.00 | 62 | 1012.0 |
| 20260506224518 | 45 | 155 | 1.0 | 12.0 | 0.00 | 0.00 | 0.00 | 60 | 1012.1 |
| 20260506223017 | 46 | 165 | 1.0 | 11.0 | 0.00 | 0.00 | 0.00 | 60 | 1012.1 |
| 20260506221515 | 46 | 208 | 0.0 | 6.0 | 0.00 | 0.00 | 0.00 | 60 | 1012.1 |
| 20260506220029 | 46 | 191 | 1.0 | 3.0 | 0.00 | 0.00 | 0.00 | 61 | 1012.0 |
| 20260506214512 | 46 | 181 | 1.0 | 3.0 | 0.00 | 0.00 | 0.00 | 60 | 1011.9 |
| 20260506213011 | 46 | 145 | 1.0 | 7.0 | 0.00 | 0.00 | 0.00 | 59 | 1011.9 |
| 20260506211511 | 46 | 166 | 0.0 | 3.0 | 0.00 | 0.00 | 0.00 | 57 | 1011.9 |
| 20260506210013 | 46 | 104 | 1.0 | 3.0 | 0.00 | 0.00 | 0.00 | 55 | 1011.8 |
| 20260506204510 | 46 | 149 | 1.0 | 3.0 | 0.00 | 0.00 | 0.00 | 55 | 1011.8 |
| 20260506203018 | 47 | 118 | 0.0 | 2.0 | 0.00 | 0.00 | 0.00 | 54 | 1011.8 |
| 20260506201509 | 47 | 132 | 1.0 | 2.0 | 0.00 | 0.00 | 0.00 | 51 | 1011.9 |
| 20260506200008 | 48 | 118 | 1.0 | 11.0 | 0.00 | 0.00 | 0.00 | 50 | 1012.0 |
| 20260506194508 | 49 | 138 | 1.0 | 6.0 | 0.00 | 0.00 | 0.00 | 48 | 1012.0 |
| 20260506193007 | 50 | 141 | 0.0 | 3.0 | 0.00 | 0.00 | 0.00 | 45 | 1011.8 |
| 20260506191507 | 50 | 123 | 0.0 | 2.0 | 0.00 | 0.00 | 0.00 | 39 | 1011.7 |
| 20260506190007 | 51 | 102 | 0.0 | 1.0 | 0.00 | 0.00 | 0.00 | 37 | 1011.7 |
| 20260506184506 | 52 | 102 | 0.0 | 3.0 | 0.00 | 0.00 | 0.00 | 35 | 1011.6 |
| 20260506183006 | 52 | 85 | 1.0 | 7.0 | 0.00 | 0.00 | 0.00 | 34 | 1011.3 |
| 20260506181505 | 53 | 90 | 0.0 | 2.0 | 0.00 | 0.00 | 0.00 | 33 | 1011.3 |
| 20260506180006 | 54 | 82 | 1.0 | 5.0 | 0.00 | 0.00 | 0.00 | 32 | 1011.2 |
| 20260506174501 | 54 | 119 | 0.0 | 3.0 | 0.00 | 0.00 | 0.00 | 33 | 1011.1 |
| 20260506173135 | 54 | 94 | 1.0 | 2.0 | 0.00 | 0.00 | 0.00 | 32 | 1011.1 |
| 20260506171558 | 55 | 116 | 1.0 | 2.0 | 0.00 | 0.00 | 0.00 | 32 | 1011.1 |
| 20260506170059 | 55 | 127 | 1.0 | 4.0 | 0.00 | 0.00 | 0.00 | 32 | 1011.1 |
| 20260506164557 | 55 | 112 | 1.0 | 3.0 | 0.00 | 0.00 | 0.00 | 31 | 1011.1 |
| 20260506163104 | 56 | 113 | 0.0 | 4.0 | 0.00 | 0.00 | 0.00 | 32 | 1010.9 |
| 20260506161558 | 56 | 92 | 1.0 | 4.0 | 0.00 | 0.00 | 0.00 | 31 | 1011.0 |
| 20260506160056 | 56 | 89 | 0.0 | 3.0 | 0.00 | 0.00 | 0.00 | 31 | 1011.0 |
| 20260506154556 | 56 | 99 | 0.0 | 3.0 | 0.00 | 0.00 | 0.00 | 31 | 1011.0 |
| 20260506153057 | 56 | 184 | 0.0 | 9.0 | 0.00 | 0.00 | 0.00 | 30 | 1011.1 |
| 20260506151553 | 56 | 166 | 1.0 | 10.0 | 0.00 | 0.00 | 0.00 | 31 | 1011.3 |
| 20260506150057 | 56 | 191 | 0.0 | 4.0 | 0.00 | 0.00 | 0.00 | 31 | 1011.3 |
| 20260506144603 | 56 | 112 | 1.0 | 4.0 | 0.00 | 0.00 | 0.00 | 31 | 1011.4 |
| 20260506143051 | 56 | 180 | 1.0 | 3.0 | 0.00 | 0.00 | 0.00 | 30 | 1011.4 |
| 20260506141550 | 56 | 253 | 0.0 | 9.0 | 0.00 | 0.00 | 0.00 | 28 | 1011.5 |
| 20260506140048 | 56 | 287 | 0.0 | 6.0 | 0.00 | 0.00 | 0.00 | 29 | 1011.5 |
| 20260506134546 | 56 | 198 | 0.0 | 5.0 | 0.00 | 0.00 | 0.00 | 29 | 1011.8 |
| 20260506133046 | 56 | 199 | 0.0 | 9.0 | 0.00 | 0.00 | 0.00 | 28 | 1011.7 |
| 20260506131543 | 55 | 88 | 0.0 | 4.0 | 0.00 | 0.00 | 0.00 | 27 | 1011.9 |
| 20260506130042 | 56 | 108 | 1.0 | 8.0 | 0.00 | 0.00 | 0.00 | 28 | 1012.0 |
| 20260506124541 | 55 | 183 | 3.0 | 11.0 | 0.00 | 0.00 | 0.00 | 29 | 1012.1 |
| 20260506123039 | 55 | 228 | 1.0 | 7.0 | 0.00 | 0.00 | 0.00 | 28 | 1012.2 |
| 20260506121538 | 55 | 236 | 1.0 | 5.0 | 0.00 | 0.00 | 0.00 | 27 | 1012.3 |
| 20260506120038 | 54 | 162 | 1.0 | 6.0 | 0.00 | 0.00 | 0.00 | 29 | 1012.5 |
| 20260506114535 | 54 | 178 | 1.0 | 9.0 | 0.00 | 0.00 | 0.00 | 28 | 1012.5 |
| 20260506113032 | 53 | 154 | 0.0 | 3.0 | 0.00 | 0.00 | 0.00 | 29 | 1012.5 |
| 20260506111530 | 53 | 120 | 1.0 | 5.0 | 0.00 | 0.00 | 0.00 | 26 | 1012.7 |
| 20260506110029 | 53 | 69 | 1.0 | 2.0 | 0.00 | 0.00 | 0.00 | 24 | 1012.9 |
| 20260506104529 | 52 | 112 | 1.0 | 7.0 | 0.00 | 0.00 | 0.00 | 25 | 1013.0 |
| 20260506103026 | 52 | 140 | 0.0 | 2.0 | 0.00 | 0.00 | 0.00 | 26 | 1013.3 |
| 20260506101524 | 52 | 116 | 1.0 | 5.0 | 0.00 | 0.00 | 0.00 | 27 | 1013.3 |
| 20260506100021 | 52 | 200 | 1.0 | 6.0 | 0.00 | 0.00 | 0.00 | 28 | 1013.4 |
| 20260506094520 | 51 | 152 | 0.0 | 4.0 | 0.00 | 0.00 | 0.00 | 30 | 1013.3 |
| 20260506093018 | 51 | 118 | 1.0 | 4.0 | 0.00 | 0.00 | 0.00 | 29 | 1013.4 |
| 20260506091518 | 51 | 185 | 0.0 | 6.0 | 0.00 | 0.00 | 0.00 | 33 | 1013.4 |
| 20260506090019 | 51 | 132 | 1.0 | 4.0 | 0.00 | 0.00 | 0.00 | 31 | 1013.5 |
| 20260506084520 | 50 | 245 | 1.0 | 7.0 | 0.00 | 0.00 | 0.00 | 31 | 1013.8 |
| 20260506083004 | 50 | 212 | 0.0 | 6.0 | 0.00 | 0.00 | 0.00 | 35 | 1013.8 |
| 20260506081600 | 50 | 119 | 0.0 | 8.0 | 0.00 | 0.00 | 0.00 | 34 | 1013.8 |
| 20260506080108 | 50 | 121 | 1.0 | 2.0 | 0.00 | 0.00 | 0.00 | 35 | 1013.7 |
| 20260506073102 | 49 | 189 | 0.0 | 4.0 | 0.00 | 0.00 | 0.00 | 40 | 1013.7 |
| 20260506071545 | 49 | 101 | 1.0 | 2.0 | 0.00 | 0.00 | 0.00 | 41 | 1013.6 |
| 20260506061528 | 42 | 180 | 0.0 | 0.0 | 0.00 | 0.00 | 0.00 | 69 | 1013.6 |